Location: Borbetomagus
(49.6328°N, 8.3592°E)
Time: 23:50:00
(UTC+00:00)

Cosmos 2208 Rocket - Pass Details

Date: 19 May 2025
Orbit: 752 x 801 km, 74.0° (Epoch: 22 June)

Event Time Altitude Azimuth Distance (km) Brightness Sun altitude
Exits shadow 20:55:03 - 187° (S) 2,436 6.2 -13.1°
Reaches altitude 10° 20:55:15 10° 186° (S) 2,357 6.1 -13.1°
Maximum altitude 21:00:31 60° 108° (ESE) 904 4.1 -13.6°
Drops below altitude 10° 21:05:46 10° 30° (NNE) 2,344 6.9 -14.0°
Sets 21:08:10 0° 27° (NNE) 3,268 7.7 -14.2°
